Location: Moscow
(55.7500°N, 37.5830°E)
Time: 06:55:41
(UTC+03:00)

A-11 Canister half - Pass Details

Date: 06 December 2021
Orbit: 1524 x 1684 km, 47.3° (Epoch: 17 January)

Event Time Altitude Azimuth Distance (km) Brightness Sun altitude
Exits shadow 03:42:51 49° 146° (SE) 2,064 9.5 -40.3°
Drops below altitude 10° 03:50:52 10° 100° (E) 3,876 11.7 -39.2°
Sets 03:54:03 0° 95° (E) 4,843 12.4 -38.8°
